GW3497 Weather Reports


time (UTC)temp
C
wind
direction
speed
KPH
gust
KPH
rain 1hr
cm
rain 24hr
cm
rain mn
cm
humidity
%
barometer
mb
20260502130331 -17 237 8.0 8.0 0.00 0.00 0.00 1015.0
20260502123629 22 141 4.8 4.8 0.00 0.00 0.00 51 1015.2
20260502122830 -17 0.0 0.0 0.00 0.00 0.00 1015.3
20260502122330 22 235 8.0 11.3 0.00 0.00 0.00 51 1015.3
20260502121832 22 235 8.0 11.3 0.00 0.00 0.00 51 1015.5
20260502121323 22 233 4.8 6.4 0.00 0.00 0.00 51 1015.7
20260502121140 21 234 1.6 11.3 0.00 0.00 0.00 49 1015.7
20260502120320 21 197 9.7 11.3 0.00 0.00 0.00 55 1015.7
20260502115821 21 203 3.2 3.2 0.00 0.00 0.00 55 1015.8
20260502115321 20 290 1.6 8.0 0.00 0.00 0.00 55 1015.8
20260502114823 20 292 8.0 8.0 0.00 0.00 0.00 55 1016.0
20260502114322 20 0.0 0.0 0.00 0.00 0.00 55 1016.0
20260502113812 20 254 0.0 0.0 0.00 0.00 0.00 52 1016.0
20260502113604 20 254 0.0 3.2 0.00 0.00 0.00 52 1016.1
20260502112808 -17 224 3.2 4.8 0.00 0.00 0.00 1016.2
20260502112306 -17 219 4.8 4.8 0.00 0.00 0.00 1016.3
20260502111812 19 266 4.8 9.7 0.00 0.00 0.00 54 1016.3
20260502111305 19 255 6.4 9.7 0.00 0.00 0.00 54 1016.5
20260502110802 19 269 3.2 8.0 0.00 0.00 0.00 57 1016.6
20260502110303 19 237 6.4 8.0 0.00 0.00 0.00 57 1016.7
20260502105801 19 257 3.2 11.3 0.00 0.00 0.00 57 1016.7
20260502105606 19 282 6.4 11.3 0.00 0.00 0.00 57 1016.7
20260502104802 18 202 6.4 8.0 0.00 0.00 0.00 57 1016.7
20260502104303 19 244 3.2 11.3 0.00 0.00 0.00 57 1016.7
20260502104127 19 238 8.0 11.3 0.00 0.00 0.00 58 1016.8
20260502103424 19 204 4.8 8.0 0.00 0.00 0.00 58 1016.9
20260502103404 19 196 9.7 9.7 0.00 0.00 0.00 58 1016.9
20260502102254 -17 204 4.8 8.0 0.00 0.00 0.00 1016.9
20260502101753 -17 176 0.0 0.0 0.00 0.00 0.00 1016.7
20260502101600 18 162 6.4 8.0 0.00 0.00 0.00 56 1016.8
20260502101111 18 162 6.4 8.0 0.00 0.00 0.00 56 1017.0
20260502100247 18 186 3.2 4.8 0.00 0.00 0.00 64 1016.9
20260502091234 16 193 4.8 4.8 0.00 0.00 0.00 75 1017.3
20260502091150 16 202 3.2 6.4 0.00 0.00 0.00 80 1017.5
20260502091146 16 193 4.8 4.8 0.00 0.00 0.00 80 1017.4
20260502071228 11 227 4.8 4.8 0.00 0.00 0.00 90 1017.8
20260502070726 10 227 3.2 6.4 0.00 0.00 0.00 90 1017.9
20260502070527 10 226 1.6 6.4 0.00 0.00 0.00 90 1018.0
20260502065725 10 209 3.2 4.8 0.00 0.00 0.00 90 1017.8
20260502065213 10 228 0.0 1.6 0.00 0.00 0.00 90 1017.8
20260502064816 9 228 1.6 3.2 0.00 0.00 0.00 90 1017.9
20260502064753 10 228 0.0 3.2 0.00 0.00 0.00 90 1017.9
20260502063716 9 228 3.2 4.8 0.00 0.00 0.00 90 1017.9
20260502063212 9 227 1.6 4.8 0.00 0.00 0.00 90 1017.9
20260502062711 9 228 0.0 4.8 0.00 0.00 0.00 90 1018.0
20260502062211 9 228 0.0 6.4 0.00 0.00 0.00 90 1018.0
20260502061714 9 228 3.2 6.4 0.00 0.00 0.00 90 1017.9
20260502061206 8 228 3.2 6.4 0.00 0.00 0.00 90 1017.9
20260502060706 8 230 0.0 4.8 0.00 0.00 0.00 90 1017.9
20260502060206 8 230 0.0 4.8 0.00 0.00 0.00 90 1017.8
20260502055704 8 228 1.6 4.8 0.00 0.00 0.00 90 1017.8
20260502055206 8 230 1.6 4.8 0.00 0.00 0.00 90 1017.8
20260502054703 8 228 3.2 4.8 0.00 0.00 0.00 90 1017.8
20260502054205 8 228 0.0 0.0 0.00 0.00 0.00 90 1017.8
20260502053704 7 228 0.0 0.0 0.00 0.00 0.00 89 1017.8
20260502053451 7 228 0.0 0.0 0.00 0.00 0.00 89 1017.8
20260502052705 7 228 0.0 3.2 0.00 0.00 0.00 88 1017.8
20260502052204 7 228 0.0 3.2 0.00 0.00 0.00 88 1017.8
20260502051955 7 228 0.0 3.2 0.00 0.00 0.00 87 1017.8
20260502051205 7 230 0.0 1.6 0.00 0.00 0.00 85 1017.8
20260502050951 7 230 0.0 0.0 0.00 0.00 0.00 85 1017.8
20260502050203 7 230 0.0 0.0 0.00 0.00 0.00 85 1017.8
20260502045659 7 230 0.0 0.0 0.00 0.00 0.00 85 1017.8
20260502045200 7 230 0.0 0.0 0.00 0.00 0.00 85 1017.8
20260502044948 7 230 0.0 0.0 0.00 0.00 0.00 85 1017.7
20260502044442 7 230 0.0 0.0 0.00 0.00 0.00 85 1017.7
20260502043658 7 230 0.0 0.0 0.00 0.00 0.00 85 1017.7
20260502043156 7 230 0.0 0.0 0.00 0.00 0.00 85 1017.7
20260502042941 8 230 0.0 0.0 0.00 0.00 0.00 85 1017.7
20260502042155 8 230 0.0 0.0 0.00 0.00 0.00 85 1017.7
20260502041659 8 230 0.0 0.0 0.00 0.00 0.00 86 1017.8
20260502041200 8 230 0.0 0.0 0.00 0.00 0.00 86 1017.8
20260502040657 8 230 0.0 1.6 0.00 0.00 0.00 86 1017.8
20260502040158 8 230 0.0 1.6 0.00 0.00 0.00 86 1017.9
20260502035654 8 230 0.0 1.6 0.00 0.00 0.00 87 1018.0
20260502035153 8 230 0.0 3.2 0.00 0.00 0.00 87 1017.9
20260502034654 8 230 0.0 4.8 0.00 0.00 0.00 87 1017.8
20260502034153 8 230 1.6 6.4 0.00 0.00 0.00 87 1017.9
20260502033654 8 230 3.2 6.4 0.00 0.00 0.00 87 1017.9
20260502033154 8 234 1.6 6.4 0.00 0.00 0.00 86 1017.9
20260502032940 8 234 3.2 6.4 0.00 0.00 0.00 85 1017.9
20260502032155 8 219 3.2 6.4 0.00 0.00 0.00 84 1018.0
20260502031655 8 217 3.2 4.8 0.00 0.00 0.00 83 1018.0
20260502031153 9 217 1.6 3.2 0.00 0.00 0.00 83 1017.9
20260502030651 9 217 1.6 3.2 0.00 0.00 0.00 83 1017.9
20260502030152 9 217 0.0 3.2 0.00 0.00 0.00 83 1017.8
20260502025654 9 217 0.0 1.6 0.00 0.00 0.00 83 1017.9
20260502025153 9 217 0.0 3.2 0.00 0.00 0.00 83 1017.9
20260502024652 10 217 0.0 4.8 0.00 0.00 0.00 83 1017.9
20260502024150 10 217 3.2 4.8 0.00 0.00 0.00 83 1018.0
20260502023653 10 217 3.2 4.8 0.00 0.00 0.00 82 1018.0
20260502023153 10 217 1.6 3.2 0.00 0.00 0.00 82 1018.1
20260502022650 10 217 0.0 1.6 0.00 0.00 0.00 82 1018.0
20260502022152 10 217 0.0 1.6 0.00 0.00 0.00 82 1017.9
20260502021650 10 217 0.0 1.6 0.00 0.00 0.00 82 1017.9
20260502021151 10 217 0.0 1.6 0.00 0.00 0.00 82 1018.0
20260502020648 10 217 0.0 0.0 0.00 0.00 0.00 82 1017.9
20260502020435 11 217 0.0 0.0 0.00 0.00 0.00 82 1018.0
20260502015645 11 217 0.0 0.0 0.00 0.00 0.00 81 1018.1
20260502015147 11 217 0.0 0.0 0.00 0.00 0.00 82 1018.2
20260502014647 11 217 0.0 0.0 0.00 0.00 0.00 82 1018.2
20260502014147 11 217 0.0 0.0 0.00 0.00 0.00 82 1018.2
20260502013647 11 217 0.0 0.0 0.00 0.00 0.00 82 1018.3
20260502013146 11 217 0.0 1.6 0.00 0.00 0.00 82 1018.4
20260502012646 11 217 0.0 1.6 0.00 0.00 0.00 83 1018.5
20260502012149 11 217 0.0 1.6 0.00 0.00 0.00 83 1018.5
20260502011647 11 217 0.0 1.6 0.00 0.00 0.00 83 1018.6
20260502011432 12 217 0.0 3.2 0.00 0.00 0.00 83 1018.6
20260502010647 12 217 0.0 4.8 0.00 0.00 0.00 83 1018.6
20260502010147 12 217 3.2 4.8 0.00 0.00 0.00 83 1018.8
20260502005647 12 217 3.2 4.8 0.00 0.00 0.00 83 1018.8
20260502005145 12 217 3.2 6.4 0.00 0.00 0.00 83 1018.9
20260502004644 12 214 4.8 6.4 0.00 0.00 0.00 82 1019.0
20260502004147 12 214 1.6 4.8 0.00 0.00 0.00 82 1019.0
20260502003644 12 214 1.6 8.0 0.00 0.00 0.00 82 1019.0
20260502003145 12 212 1.6 8.0 0.00 0.00 0.00 82 1019.0
20260502002645 12 212 3.2 6.4 0.00 0.00 0.00 82 1019.1
20260502002148 12 212 1.6 4.8 0.00 0.00 0.00 82 1019.1
20260502001747 13 209 4.8 6.4 0.00 0.00 0.00 81 1019.1
20260502001728 12 210 1.6 6.4 0.00 0.00 0.00 81 1019.0
20260502000646 13 200 1.6 4.8 0.00 0.00 0.00 81 1019.0
20260502000143 13 199 1.6 3.2 0.00 0.00 0.00 81 1019.1
20260501235644 13 199 1.6 3.2 0.00 0.00 0.00 81 1019.1
20260501235144 13 199 0.0 1.6 0.00 0.00 0.00 81 1019.0
20260501234933 13 199 0.0 0.0 0.00 0.00 0.00 81 1019.1
20260501234142 13 199 0.0 1.6 0.00 0.00 0.00 81 1019.1
20260501233642 13 199 0.0 3.2 0.00 0.00 0.00 81 1019.0
20260501233142 13 199 1.6 4.8 0.00 0.00 0.00 81 1019.1
20260501232642 13 199 3.2 4.8 0.00 0.00 0.00 81 1019.2
20260501232143 13 197 1.6 4.8 0.00 0.00 0.00 81 1019.3
20260501231643 13 197 0.0 4.8 0.00 0.00 0.00 80 1019.2
20260501231140 13 197 1.6 4.8 0.00 0.00 0.00 80 1019.2
20260501230639 13 220 0.0 4.8 0.00 0.00 0.00 79 1019.3
20260501230139 13 244 0.0 1.6 0.00 0.00 0.00 78 1019.3
20260501225636 13 244 0.0 3.2 0.00 0.00 0.00 78 1019.2
20260501225133 13 244 0.0 3.2 0.00 0.00 0.00 78 1019.3
20260501224633 14 244 0.0 3.2 0.00 0.00 0.00 78 1019.1
20260501224132 14 248 0.0 3.2 0.00 0.00 0.00 77 1019.2
20260501223636 14 248 1.6 3.2 0.00 0.00 0.00 77 1019.2
20260501223423 14 252 0.0 0.0 0.00 0.00 0.00 77 1019.3
20260501222919 14 252 0.0 3.2 0.00 0.00 0.00 77 1019.3
20260501222135 14 252 1.6 3.2 0.00 0.00 0.00 77 1019.2
20260501221922 15 252 1.6 3.2 0.00 0.00 0.00 77 1019.3
20260501221137 15 252 0.0 1.6 0.00 0.00 0.00 76 1019.2
20260501220704 15 252 1.6 3.2 0.00 0.00 0.00 76 1019.2
20260501220654 15 252 0.0 3.2 0.00 0.00 0.00 76 1019.2
20260501215636 15 252 0.0 3.2 0.00 0.00 0.00 76 1019.0
20260501215136 15 252 1.6 4.8 0.00 0.00 0.00 75 1019.2
20260501214634 15 251 3.2 4.8 0.00 0.00 0.00 75 1019.2
20260501214137 15 247 3.2 4.8 0.00 0.00 0.00 75 1019.3
20260501213633 15 219 3.2 4.8 0.00 0.00 0.00 75 1019.2
20260501213135 15 254 3.2 4.8 0.00 0.00 0.00 75 1019.2
20260501212634 16 254 1.6 6.4 0.00 0.00 0.00 75 1019.1
20260501212134 16 214 3.2 6.4 0.00 0.00 0.00 75 1019.1
20260501211635 16 234 4.8 8.0 0.00 0.00 0.00 75 1019.3
20260501211134 16 220 3.2 8.0 0.00 0.00 0.00 74 1019.2
20260501210635 16 214 3.2 4.8 0.00 0.00 0.00 74 1019.2
20260501210135 16 244 4.8 8.0 0.00 0.00 0.00 74 1019.1
20260501205634 16 244 6.4 8.0 0.00 0.00 0.00 74 1019.0
20260501205427 16 234 4.8 8.0 0.00 0.00 0.00 74 1019.1
20260501204634 16 234 8.0 8.0 0.00 0.00 0.00 74 1019.2
20260501204134 16 244 6.4 8.0 0.00 0.00 0.00 72 1019.1
20260501203927 16 237 8.0 8.0 0.00 0.00 0.00 72 1019.1
20260501203134 16 243 4.8 4.8 0.00 0.00 0.00 72 1019.1
20260501202633 -17 237 4.8 4.8 0.00 0.00 0.00 1019.0
20260501202134 -17 227 3.2 6.4 0.00 0.00 0.00 1019.1
20260501201636 -17 227 3.2 6.4 0.00 0.00 0.00 1019.0
20260501201135 17 223 3.2 6.4 0.00 0.00 0.00 72 1018.9
20260501200634 17 223 6.4 6.4 0.00 0.00 0.00 72 1019.0
20260501200135 17 0.0 0.0 0.00 0.00 0.00 72 1019.0
20260501195636 17 228 6.4 6.4 0.00 0.00 0.00 71 1018.9
20260501195132 17 228 6.4 8.0 0.00 0.00 0.00 71 1018.8
20260501194642 17 224 6.4 8.0 0.00 0.00 0.00 71 1018.8
20260501194138 17 254 3.2 8.0 0.00 0.00 0.00 71 1018.9
20260501194044 18 240 3.2 8.0 0.00 0.00 0.00 71 1018.8
20260501193130 18 214 9.7 16.1 0.00 0.00 0.00 71 1018.8
20260501192629 18 223 9.7 16.1 0.00 0.00 0.00 70 1018.7
20260501192133 18 261 8.0 8.0 0.00 0.00 0.00 70 1018.7
20260501191926 18 251 4.8 6.4 0.00 0.00 0.00 70 1018.7
20260501191122 18 261 6.4 6.4 0.00 0.00 0.00 70 1018.6
20260501190857 18 257 4.8 6.4 0.00 0.00 0.00 68 1018.6
20260501190627 18 257 4.8 6.4 0.00 0.00 0.00 68 1018.6
20260501190128 19 243 6.4 6.4 0.00 0.00 0.00 68 1018.5
20260501185904 19 247 4.8 6.4 0.00 0.00 0.00 68 1018.5
20260501185112 -17 269 6.4 6.4 0.00 0.00 0.00 1018.5
20260501184859 20 0.0 0.0 0.00 0.00 0.00 66 1018.3
20260501184054 20 244 6.4 6.4 0.00 0.00 0.00 66 1018.4
20260501183555 -17 244 6.4 8.0 0.00 0.00 0.00 1018.4
20260501183451 20 261 8.0 14.5 0.00 0.00 0.00 62 1018.3
20260501182849 20 230 9.7 14.5 0.00 0.00 0.00 62 1018.3
20260501182524 20 248 6.4 16.1 0.00 0.00 0.00 62 1018.2
20260501181547 20 214 12.9 16.1 0.00 0.00 0.00 62 1018.2
20260501181051 20 259 6.4 6.4 0.00 0.00 0.00 62 1018.2
20260501180546 21 247 4.8 9.7 0.00 0.00 0.00 62 1018.2
20260501180101 21 220 8.0 11.3 0.00 0.00 0.00 62 1018.2
20260501175534 21 220 8.0 11.3 0.00 0.00 0.00 62 1018.2
20260501175446 -17 221 6.4 11.3 0.00 0.00 0.00 1018.1
20260501175440 -17 251 11.3 11.3 0.00 0.00 0.00 1018.1
20260501174041 -17 227 8.0 109.4 0.00 0.00 0.00 1018.1
20260501173534 -17 227 14.5 109.4 0.00 0.00 0.00 1018.0
20260501173049 -17 252 4.8 8.0 0.00 0.00 0.00 1018.0
20260501172535 22 240 6.4 8.0 0.00 0.00 0.00 55 1018.0
20260501172036 22 220 1.6 1.6 0.00 0.00 0.00 55 1018.0
20260501171533 22 202 6.4 8.0 0.00 0.00 0.00 55 1017.9
20260501171446 22 234 3.2 17.7 0.00 0.00 0.00 55 1018.0
20260501171442 22 202 6.4 14.5 0.00 0.00 0.00 55 1017.9
20260501170052 23 176 17.7 17.7 0.00 0.00 0.00 55 1018.0
20260501165534 23 234 4.8 4.8 0.00 0.00 0.00 55 1017.9
20260501165036 23 216 8.0 8.0 0.00 0.00 0.00 53 1018.0
20260501164533 24 216 8.0 8.0 0.00 0.00 0.00 44 1017.9
20260501164036 24 250 14.5 17.7 0.00 0.00 0.00 44 1018.0
20260501163535 25 250 14.5 17.7 0.00 0.00 0.00 44 1017.9
20260501163047 25 235 14.5 17.7 0.00 0.00 0.00 44 1017.9
20260501162532 25 214 3.2 3.2 0.00 0.00 0.00 44 1017.9
20260501162034 25 214 4.8 11.3 0.00 0.00 0.00 44 1017.9
20260501161534 25 214 4.8 11.3 0.00 0.00 0.00 44 1017.9
20260501161037 25 231 4.8 11.3 0.00 0.00 0.00 44 1018.0
20260501160532 25 216 9.7 16.1 0.00 0.00 0.00 44 1018.0
20260501160053 26 206 16.1 17.7 0.00 0.00 0.00 44 1018.0
20260501155608 26 203 8.0 8.0 0.00 0.00 0.00 43 1018.2
20260501155557 26 254 16.1 17.7 0.00 0.00 0.00 44 1018.1
20260501154534 26 216 3.2 3.2 0.00 0.00 0.00 43 1018.1
20260501154034 26 216 3.2 9.7 0.00 0.00 0.00 39 1018.2
20260501153532 26 234 3.2 17.7 0.00 0.00 0.00 39 1018.2
20260501153214 26 233 8.0 19.3 0.00 0.00 0.00 39 1018.3
20260501153149 26 244 14.5 17.7 0.00 0.00 0.00 39 1018.3
20260501152034 26 204 14.5 19.3 0.00 0.00 0.00 39 1018.4
20260501151535 26 207 9.7 17.7 0.00 0.00 0.00 39 1018.4
20260501151033 26 238 8.0 9.7 0.00 0.00 0.00 39 1018.4
20260501150532 26 238 8.0 9.7 0.00 0.00 0.00 39 1018.4
20260501150050 26 266 8.0 17.7 0.00 0.00 0.00 39 1018.5
20260501145533 26 224 17.7 20.9 0.00 0.00 0.00 39 1018.5
20260501145032 26 230 14.5 20.9 0.00 0.00 0.00 36 1018.5
20260501144640 27 185 9.7 11.3 0.00 0.00 0.00 36 1018.5
20260501144619 26 217 6.4 11.3 0.00 0.00 0.00 36 1018.5
20260501143527 27 200 8.0 14.5 0.00 0.00 0.00 36 1018.5
20260501143043 -17 235 4.8 14.5 0.00 0.00 0.00 1018.5